Regional Weather Roundup
Issued by NWS

Home | Current Version | Previous Version | Graphics & Text | Print | Product List | Glossary On
Versions: 1 2 3 4 5 6 7 8 9 10 11 12 13 14 15 16 17 18 19 20 21 22 23 24 25 26 27 28 29 30 31 32 33 34 35 36 37 38 39 40 41 42 43 44 45 46 47 48 49 50
000
ASUS45 KSLC 201510
RWRUT

UTAH REGIONAL WEATHER ROUNDUP
NATIONAL WEATHER SERVICE SALT LAKE CITY UT
900 AM MDT MON OCT 20 2014

UTZ001>011-023>025-201600-

NORTHERN UTAH

CITY           SKY/WX    TMP DP  RH WIND       PRES   REMARKS
BRIGHAM CITY     N/A     43  35  71 CALM      30.06S
HILL AFB       SUNNY     51  31  46 SE23      30.07R
LOGAN          SUNNY     39  34  82 CALM      30.08R
OGDEN            N/A     52  33  48 S8        30.05R
PROVO AIRPORT  MOSUNNY   46  37  71 CALM      30.11R
SALT LAKE CITY   N/A     56  39  53 SE9       30.05R
VERNAL         MOSUNNY   46  35  65 CALM      30.19R
WENDOVER         N/A     48  36  61 CALM      30.05R
HEBER CITY       N/A     39  32  75 CALM      30.17R
WEST JORDAN    SUNNY     57  43  58 S12       30.08R

$$

UTZ012>022-026-027-201600-

SOUTHERN/CENTRAL UTAH

CITY           SKY/WX    TMP DP  RH WIND       PRES   REMARKS
BLANDING         N/A     53  43  70 W3        30.29R
BRYCE CANYON     N/A     40  34  79 W6        30.26R
CEDAR CITY       N/A     50  41  71 CALM      30.12R
DELTA            N/A     50  37  60 CALM      30.10R
HANKSVILLE       N/A     46  32  57 CALM      30.16R
MILFORD          N/A     45  33  63 S5        30.10R
MOAB/CYNLANDS  MOSUNNY   61  37  41 SE9       30.12R
PRICE            N/A     53  32  44 CALM      30.19R
ST GEORGE        N/A     57  36  44 CALM      30.04R
KANAB            N/A     54  36  50 NE7       30.17R

$$

REGIONAL REPORTS     COLORADO/ARIZONA

CITY           SKY/WX    TMP DP  RH WIND       PRES   REMARKS
CRAIG, CO      SUNNY     39  33  79 CALM      30.24R
GRAND JUNCTION SUNNY     54  41  61 SE12      30.17R
RIFLE          MOSUNNY   42  36  79 CALM      30.24R
MONTROSE       SUNNY     50  38  63 CALM      30.24R
CORTEZ         SUNNY     46  41  82 NE5       30.24R
PAGE, AZ       NOT AVBL
GRAND CANYON     N/A     50  40  68 VRB3      30.20R
KINGMAN          N/A     61  44  53 SE10      30.01R
FLAGSTAFF        N/A     44  37  76 CALM      30.21R

$$

REGIONAL REPORTS    NEVADA/IDAHO/WYOMING

CITY           SKY/WX    TMP DP  RH WIND       PRES   REMARKS
LAS VEGAS, NV    N/A     69  40  34 S5        29.90R
ELY              N/A     41  31  67 S12       30.12R
ELKO             N/A     42  27  55 E3        30.04R
POCATELLO, ID  PTSUNNY   43  34  70 NE5       30.04R
BURLEY           N/A     44  33  65 E8        29.98R
EVANSTON, WY   SUNNY     48  30  49 SE5       30.20
ROCK SPRINGS   SUNNY     42  29  59 CALM      30.20R
KEMMERER       SUNNY     37  30  75 N8        30.22S WCI  31

$$


USA.gov is the U.S. government's official web portal to all federal, state and local government web resources and services.